95P/(2060) Chiron (1996)

Japanese version
Home page
Updated on November 22, 2011

---------------------------------------------------------------------

* Profile

* Pictures

* Orbital Elements

The following orbital elements are taken from MPO202297

Epoch 2011 Aug. 27.0 TT = JDT 2455800.5                 MPC
M 110.84648              (2000.0)            P               Q
n   0.01947843     Peri.  339.56721     -0.98656191     +0.15229461
a  13.6804412      Node   209.38732     -0.12809673     -0.94578450
e   0.3787644      Incl.    6.92645     -0.10142403     -0.28687633
P  50.6            H    6.3           G   0.15           U   0
From 1098 observations at 42 oppositions, 1895-2011, mean residual 0".57.

* Finding Charts

* Magnitudes Graph

        H = 6.0  G = 0.15

---------------------------------------------------------------------

The orbital elements are published at the MPC Ephemerides and Orbital Elements.
The charts are made with StellaNavigator Ver.2.0 for Windows (AstroArts / ASCII).
The magnitudes graphs are made with Comet for Windows.

---------------------------------------------------------------------

Copyright(C) Seiichi Yoshida (comet@aerith.net). All rights reserved.